QPF
0.00 0.00 0.00 0.00 0.00 0.00 0.00 0.00 0.00 0.00 0.00 0.00 0.00 0.00 0.00 0.00 0.00 0.00 0.00 0.01 0.02 0.02 0.02 0.03 0.01 0.01 0.01 0.00 0.02 0.04 0.03 0.04 0.02 0.00 0.00 0.00 0.00 0.00 0.00 0.00 0.01 0.02 0.00
0.00 0.00 0.00 0.00 0.00 0.00 0.00 0.00 0.00 0.00 0.00 0.00 0.00 0.00 0.00 0.00 0.00 0.00 0.00 0.00 0.01 0.01 0.02 0.03 0.01 0.05 0.01 0.01 0.02 0.02 0.01 0.01 0.02 0.00 0.00 0.00 0.01 0.02 0.02 0.04 0.04 0.02 0.01
0.00 0.00 0.00 0.00 0.00 0.00 0.00 0.00 0.00 0.00 0.00 0.00 0.00 0.00 0.00 0.00 0.00 0.00 0.00 0.00 0.00 0.00 0.01 0.01 0.01 0.02 0.01 0.00 0.01 0.01 0.00 0.01 0.01 0.01 0.00 0.00 0.01 0.02 0.01 0.01 0.02 0.03 0.04
0.00 0.00 0.00 0.00 0.00 0.00 0.00 0.00 0.00 0.00 0.00 0.00 0.00 0.00 0.00 0.00 0.00 0.00 0.00 0.00 0.00 0.00 0.00 0.00 0.01 0.02 0.00 0.00 0.00 0.00 0.00 0.01 0.03 0.02 0.02 0.02 0.02 0.02 0.01 0.02 0.02 0.03 0.03
0.00 0.00 0.00 0.00 0.00 0.00 0.00 0.00 0.00 0.00 0.00 0.00 0.00 0.00 0.00 0.00 0.00 0.00 0.00 0.00 0.00 0.00 0.00 0.00 0.00 0.00 0.00 0.00 0.00 0.00 0.01 0.02 0.02 0.02 0.03 0.03 0.03 0.06 0.05 0.03 0.02 0.01 0.02
0.00 0.00 0.00 0.00 0.00 0.00 0.00 0.00 0.00 0.00 0.00 0.00 0.00 0.00 0.00 0.00 0.00 0.00 0.00 0.00 0.00 0.00 0.00 0.01 0.00 0.00 0.00 0.00 0.01 0.02 0.03 0.04 0.07 0.12 0.17 0.17 0.11 0.08 0.04 0.01 0.02 0.02 0.03
0.03 0.03 0.01 0.00 0.00 0.00 0.00 0.00 0.00 0.00 0.00 0.00 0.00 0.00 0.00 0.00 0.00 0.00 0.00 0.00 0.00 0.01 0.02 0.02 0.01 0.01 0.00 0.00 0.01 0.03 0.08 0.20 0.23 0.22 0.18 0.13 0.11 0.09 0.03 0.02 0.03 0.02 0.01
0.04 0.03 0.06 0.04 0.04 0.00 0.00 0.00 0.00 0.00 0.00 0.00 0.00 0.00 0.00 0.00 0.00 0.00 0.00 0.00 0.00 0.01 0.02 0.01 0.01 0.01 0.02 0.06 0.12 0.18 0.20 0.16 0.15 0.13 0.12 0.11 0.07 0.02 0.01 0.01 0.00 0.00 0.00
0.07 0.05 0.06 0.06 0.04 0.03 0.01 0.00 0.00 0.01 0.01 0.01 0.00 0.00 0.00 0.00 0.01 0.01 0.00 0.01 0.02 0.02 0.02 0.02 0.03 0.02 0.07 0.12 0.08 0.08 0.12 0.13 0.10 0.07 0.04 0.03 0.00 0.00 0.00 0.00 0.00 0.00 0.00
0.04 0.07 0.10 0.06 0.03 0.03 0.04 0.01 0.01 0.01 0.01 0.02 0.01 0.00 0.01 0.01 0.01 0.01 0.01 0.02 0.04 0.04 0.03 0.05 0.10 0.05 0.10 0.07 0.04 0.05 0.05 0.05 0.05 0.04 0.02 0.01 0.00 0.00 0.00 0.00 0.00 0.00 0.00
0.01 0.08 0.11 0.11 0.09 0.07 0.08 0.03 0.01 0.02 0.03 0.05 0.05 0.03 0.02 0.03 0.02 0.03 0.02 0.02 0.03 0.03 0.03 0.05 0.11 0.16 0.11 0.11 0.09 0.10 0.13 0.13 0.09 0.05 0.02 0.00 0.00 0.00 0.00 0.00 0.00 0.00 0.00
0.00 0.02 0.04 0.10 0.13 0.12 0.09 0.05 0.01 0.01 0.02 0.02 0.04 0.06 0.06 0.07 0.12 0.10 0.07 0.08 0.08 0.05 0.10 0.12 0.15 0.15 0.12 0.13 0.14 0.15 0.15 0.13 0.12 0.09 0.04 0.01 0.00 0.00 0.00 0.00 0.00 0.00 0.00
0.00 0.01 0.03 0.06 0.12 0.15 0.16 0.15 0.13 0.09 0.05 0.03 0.03 0.04 0.04 0.05 0.11 0.15 0.12 0.13 0.15 0.11 0.16 0.22 0.27 0.28 0.27 0.26 0.25 0.24 0.23 0.18 0.12 0.05 0.01 0.00 0.00 0.00 0.00 0.00 0.00 0.00 0.00
0.00 0.00 0.01 0.03 0.08 0.10 0.11 0.12 0.16 0.17 0.16 0.15 0.11 0.08 0.08 0.09 0.11 0.13 0.15 0.21 0.32 0.40 0.52 0.58 0.56 0.54 0.49 0.40 0.30 0.19 0.10 0.04 0.02 0.00 0.00 0.00 0.00 0.00 0.00 0.00 0.00 0.00 0.00
0.00 0.00 0.02 0.04 0.07 0.08 0.10 0.12 0.11 0.10 0.13 0.21 0.28 0.34 0.39 0.41 0.42 0.44 0.43 0.42 0.47 0.50 0.51 0.49 0.43 0.36 0.29 0.20 0.12 0.05 0.02 0.00 0.00 0.00 0.00 0.00 0.00 0.00 0.00 0.00 0.00 0.00 0.00
0.00 0.00 0.01 0.01 0.06 0.14 0.20 0.24 0.25 0.23 0.21 0.25 0.28 0.32 0.43 0.47 0.48 0.44 0.43 0.41 0.35 0.28 0.21 0.18 0.15 0.10 0.06 0.03 0.01 0.01 0.00 0.00 0.00 0.00 0.00 0.00 0.00 0.00 0.00 0.00 0.00 0.00 0.00
0.00 0.01 0.02 0.05 0.09 0.11 0.13 0.18 0.31 0.46 0.51 0.45 0.38 0.32 0.30 0.34 0.34 0.30 0.24 0.18 0.14 0.10 0.08 0.07 0.05 0.02 0.01 0.01 0.00 0.00 0.00 0.00 0.00 0.00 0.00 0.00 0.00 0.00 0.00 0.00 0.00 0.00 0.00
0.00 0.00 0.01 0.04 0.08 0.13 0.16 0.21 0.25 0.27 0.26 0.29 0.32 0.30 0.27 0.23 0.19 0.16 0.13 0.10 0.10 0.07 0.05 0.03 0.02 0.01 0.00 0.00 0.00 0.00 0.00 0.00 0.00 0.00 0.00 0.00 0.00 0.00 0.00 0.00 0.00 0.00 0.00
0.00 0.00 0.00 0.02 0.03 0.05 0.08 0.10 0.13 0.15 0.14 0.14 0.14 0.12 0.12 0.10 0.07 0.05 0.03 0.01 0.01 0.01 0.00 0.00 0.00 0.00 0.00 0.00 0.00 0.00 0.00 0.00 0.00 0.00 0.00 0.00 0.00 0.00 0.00 0.00 0.00 0.00 0.00
0.01 0.01 0.00 0.00 0.01 0.01 0.03 0.04 0.05 0.04 0.04 0.04 0.04 0.04 0.03 0.01 0.00 0.00 0.00 0.00 0.00 0.00 0.00 0.00 0.00 0.00 0.00 0.00 0.00 0.00 0.00 0.00 0.00 0.00 0.00 0.00 0.00 0.00 0.00 0.00 0.00 0.00 0.00
0.02 0.01 0.01 0.00 0.00 0.00 0.00 0.01 0.01 0.01 0.01 0.01 0.01 0.00 0.00 0.00 0.00 0.00 0.00 0.00 0.00 0.00 0.00 0.00 0.00 0.00 0.00 0.00 0.00 0.00 0.00 0.00 0.00 0.00 0.00 0.00 0.00 0.00 0.00 0.00 0.00 0.00 0.00
0.02 0.02 0.01 0.01 0.01 0.01 0.01 0.00 0.00 0.00 0.00 0.00 0.00 0.00 0.00 0.00 0.00 0.00 0.00 0.00 0.00 0.00 0.00 0.00 0.00 0.00 0.00 0.00 0.00 0.00 0.00 0.00 0.00 0.00 0.00 0.00 0.00 0.00 0.00 0.00 0.00 0.00 0.00
0.02 0.02 0.01 0.01 0.01 0.01 0.00 0.00 0.00 0.00 0.00 0.00 0.00 0.00 0.00 0.00 0.00 0.00 0.00 0.00 0.00 0.00 0.00 0.00 0.00 0.00 0.00 0.00 0.00 0.00 0.00 0.00 0.00 0.00 0.00 0.00 0.00 0.00 0.00 0.00 0.00 0.00 0.00
0.02 0.02 0.01 0.01 0.00 0.00 0.00 0.00 0.00 0.00 0.00 0.00 0.00 0.00 0.00 0.00 0.00 0.00 0.00 0.00 0.00 0.00 0.00 0.00 0.00 0.00 0.00 0.00 0.00 0.00 0.00 0.00 0.00 0.00 0.00 0.00 0.00 0.00 0.00 0.00 0.00 0.00 0.00
0.00 0.00 0.00 0.00 0.00 0.00 0.00 0.00 0.00 0.00 0.00 0.00 0.00 0.00 0.00 0.00 0.00 0.00 0.00 0.00 0.00 0.00 0.00 0.00 0.00 0.00 0.00 0.00 0.00 0.00 0.00 0.00 0.00 0.00 0.00 0.00 0.00 0.00 0.00 0.00 0.00 0.00 0.00
0.00 0.00 0.00 0.00 0.00 0.00 0.00 0.00 0.00 0.00 0.00 0.00 0.00 0.00 0.00 0.00 0.00 0.00 0.00 0.00 0.00 0.00 0.00 0.00 0.00 0.00 0.00 0.00 0.00 0.00 0.00 0.00 0.00 0.00 0.00 0.00 0.00 0.00 0.00 0.00 0.00 0.00 0.00
MSLP
1004.95 1005.83 1006.67 1007.34 1008.18 1008.99 1009.24 1009.92 1010.30 1010.75 1011.24 1011.95 1012.57 1013.27 1013.90 1014.51 1014.91 1015.26 1015.67 1015.95 1016.28 1016.63 1017.02 1017.31 1017.48 1017.62 1017.77 1017.96 1018.07 1018.26 1018.61 1018.89 1019.09 1018.17 1018.17 1017.86 1018.12 1018.06 1017.88 1018.01 1018.25 1018.56 1018.65
1004.37 1005.22 1006.19 1006.91 1007.51 1008.20 1008.93 1009.36 1009.97 1010.46 1010.88 1011.34 1012.08 1012.69 1013.23 1013.67 1014.09 1014.47 1014.87 1015.17 1015.46 1016.01 1016.27 1016.73 1016.79 1016.98 1017.09 1017.19 1017.36 1017.49 1017.64 1017.49 1017.97 1017.99 1017.77 1017.70 1017.80 1017.93 1017.94 1018.06 1018.23 1018.33 1018.43
1003.82 1004.77 1005.66 1006.39 1007.01 1007.47 1007.95 1008.70 1009.40 1009.98 1010.55 1011.02 1011.49 1011.97 1012.36 1012.71 1013.26 1013.67 1014.06 1014.42 1014.78 1015.01 1015.22 1015.70 1015.82 1016.31 1016.55 1016.52 1016.59 1016.72 1016.66 1016.68 1016.89 1017.32 1017.30 1017.55 1018.02 1018.24 1018.23 1018.38 1018.58 1018.64 1018.77
1003.28 1004.14 1004.94 1005.63 1006.27 1007.07 1007.64 1008.00 1008.49 1009.25 1009.83 1010.35 1010.88 1011.37 1011.78 1012.10 1012.40 1012.79 1013.22 1013.50 1013.78 1014.00 1014.34 1014.73 1014.97 1015.29 1015.47 1015.53 1015.81 1015.82 1015.88 1016.17 1016.47 1016.77 1016.99 1017.74 1018.17 1018.42 1018.40 1018.82 1018.94 1019.32 1018.76
1002.68 1003.04 1004.01 1004.90 1005.52 1006.14 1006.82 1007.46 1007.99 1008.53 1009.04 1009.63 1010.19 1010.64 1011.12 1011.44 1011.75 1012.15 1012.43 1012.69 1012.97 1013.33 1013.77 1014.00 1014.27 1014.60 1014.90 1015.09 1015.17 1015.04 1015.44 1015.79 1016.03 1016.43 1017.19 1017.93 1018.32 1018.56 1018.80 1018.98 1019.24 1019.56 1019.63
1001.91 1002.27 1002.88 1003.91 1004.59 1005.18 1005.88 1006.47 1007.12 1007.73 1008.24 1008.77 1009.13 1009.65 1010.08 1010.31 1010.79 1011.31 1011.77 1012.25 1012.57 1012.81 1013.24 1013.98 1014.52 1015.05 1015.44 1015.53 1015.46 1015.47 1015.54 1015.65 1015.87 1016.45 1017.20 1017.38 1018.52 1019.62 1018.84 1019.39 1019.81 1019.76 1019.99
1002.07 1002.05 1002.50 1003.09 1003.55 1004.16 1005.03 1005.72 1006.13 1006.63 1007.38 1007.94 1008.49 1008.96 1009.18 1009.45 1009.80 1010.26 1010.78 1011.37 1011.75 1012.11 1012.80 1013.86 1014.63 1015.26 1015.51 1015.81 1016.00 1015.97 1016.24 1016.05 1015.91 1016.39 1017.53 1018.39 1019.20 1018.90 1019.62 1020.10 1020.43 1020.32 1020.61
1001.66 1002.02 1002.40 1002.49 1003.31 1003.74 1004.17 1004.45 1005.19 1005.81 1006.32 1006.90 1007.49 1007.89 1008.33 1008.58 1008.98 1009.49 1010.13 1011.00 1011.79 1012.29 1012.65 1013.22 1013.93 1014.79 1015.37 1015.78 1016.04 1016.52 1017.10 1017.26 1017.33 1017.49 1018.34 1018.12 1019.31 1019.72 1019.79 1020.01 1020.10 1020.38 1020.67
1001.63 1001.65 1002.21 1002.49 1002.60 1002.94 1003.47 1003.90 1004.40 1005.05 1005.53 1005.94 1006.31 1006.95 1007.70 1008.53 1008.70 1009.06 1009.98 1011.31 1012.35 1013.04 1013.47 1013.83 1014.44 1015.18 1015.75 1016.23 1016.13 1017.31 1017.52 1018.87 1019.56 1018.19 1019.07 1020.37 1019.68 1020.63 1020.11 1020.04 1021.03 1020.88 1021.06
1003.29 1002.77 1002.19 1001.83 1002.30 1002.50 1002.69 1003.29 1003.97 1004.61 1005.06 1005.66 1006.48 1007.21 1007.71 1008.54 1009.02 1009.02 1009.51 1011.05 1012.39 1013.22 1014.21 1014.70 1014.90 1015.30 1016.48 1016.84 1016.77 1017.80 1017.94 1020.08 1019.81 1020.35 1020.58 1020.82 1020.97 1020.87 1021.06 1021.53 1021.63 1021.67 1022.11
1004.36 1003.86 1003.09 1002.18 1002.09 1002.26 1002.72 1003.42 1003.94 1004.67 1005.65 1006.68 1007.67 1008.55 1009.08 1009.65 1010.12 1010.31 1010.42 1010.28 1011.53 1013.29 1014.84 1015.49 1015.95 1016.05 1016.08 1017.18 1018.20 1018.30 1018.55 1020.18 1020.58 1020.70 1022.27 1022.10 1021.78 1021.67 1021.74 1022.02 1022.02 1022.30 1022.70
1005.45 1005.10 1004.84 1004.11 1003.45 1003.42 1003.20 1004.14 1004.90 1005.36 1006.40 1007.58 1008.23 1009.25 1010.08 1010.61 1010.89 1011.26 1011.50 1012.02 1013.16 1013.83 1015.68 1016.62 1017.67 1017.59 1017.99 1018.06 1018.61 1020.35 1019.65 1020.63 1022.16 1022.21 1022.71 1023.36 1023.56 1022.82 1022.85 1022.94 1022.93 1023.09 1023.44
1006.33 1006.26 1005.94 1005.80 1005.59 1005.41 1005.35 1005.80 1006.24 1006.49 1007.23 1008.37 1008.99 1009.63 1010.85 1011.75 1012.20 1012.03 1013.13 1013.38 1014.03 1014.48 1015.59 1017.16 1018.27 1018.98 1019.26 1019.38 1020.29 1020.68 1020.46 1022.25 1022.88 1022.98 1023.55 1024.32 1024.34 1023.65 1023.91 1023.59 1023.64 1023.80 1024.13
1007.48 1007.42 1007.43 1007.06 1007.11 1007.19 1007.55 1008.00 1008.37 1008.70 1008.25 1008.39 1009.23 1010.54 1011.30 1012.54 1013.22 1013.92 1013.72 1015.21 1015.33 1016.18 1017.18 1017.27 1018.20 1019.07 1018.41 1020.40 1020.88 1021.53 1021.70 1023.09 1022.73 1023.89 1024.45 1024.08 1023.95 1024.42 1024.42 1024.38 1024.42 1024.15 1024.25
1008.98 1009.50 1009.11 1008.44 1008.39 1008.67 1009.31 1009.99 1010.30 1010.98 1011.64 1010.85 1011.49 1011.44 1011.23 1012.53 1013.65 1015.09 1015.35 1014.10 1014.92 1017.13 1017.61 1018.44 1018.66 1020.29 1020.22 1021.22 1022.43 1022.84 1023.56 1024.05 1024.32 1024.55 1024.73 1024.77 1024.67 1025.08 1025.09 1024.95 1025.03 1025.41 1025.46
1010.31 1010.80 1011.51 1011.29 1010.65 1009.98 1009.67 1011.00 1011.81 1012.51 1011.96 1014.81 1012.50 1013.36 1013.95 1013.25 1014.48 1015.45 1015.90 1017.20 1017.03 1018.39 1019.27 1019.80 1020.24 1020.97 1022.34 1023.29 1023.01 1023.96 1024.58 1024.47 1024.87 1025.28 1025.56 1025.36 1025.56 1025.83 1025.75 1025.62 1025.94 1026.32 1025.96
1011.56 1011.83 1012.36 1013.06 1013.07 1012.54 1012.69 1012.56 1011.75 1013.60 1014.30 1014.64 1014.41 1014.39 1015.79 1016.22 1016.11 1016.39 1016.95 1018.49 1018.95 1019.62 1020.21 1021.01 1021.63 1022.48 1023.82 1024.34 1024.56 1025.07 1025.40 1025.60 1025.78 1025.63 1026.24 1026.30 1026.52 1026.74 1026.73 1026.54 1026.56 1026.70 1026.49
1012.93 1013.35 1014.00 1013.80 1015.38 1014.84 1014.62 1014.71 1015.36 1015.34 1015.74 1016.45 1017.29 1017.41 1018.13 1018.58 1018.18 1018.24 1019.14 1019.68 1020.24 1021.17 1021.85 1022.61 1022.99 1023.65 1024.78 1025.29 1025.71 1026.32 1026.69 1026.28 1026.18 1026.65 1027.44 1027.78 1027.68 1027.57 1027.50 1027.34 1027.02 1027.10 1027.02
1014.08 1014.37 1015.49 1015.79 1016.43 1016.93 1016.34 1016.51 1017.18 1017.76 1017.84 1018.62 1019.67 1019.67 1019.93 1020.11 1020.03 1020.73 1020.91 1021.37 1022.06 1022.90 1023.74 1024.10 1024.71 1025.33 1025.84 1026.37 1026.52 1027.07 1027.08 1027.29 1027.46 1027.79 1028.41 1028.53 1028.37 1028.24 1028.24 1027.85 1027.85 1027.60 1027.29
1015.59 1016.01 1016.87 1017.38 1017.23 1018.62 1018.08 1017.93 1018.54 1019.06 1019.32 1020.27 1020.93 1021.45 1021.34 1021.60 1022.57 1023.22 1023.36 1023.51 1023.82 1024.46 1025.19 1025.69 1025.91 1026.75 1027.16 1027.31 1027.36 1027.11 1027.39 1027.94 1028.17 1028.64 1028.69 1028.95 1028.93 1028.69 1028.66 1028.51 1028.55 1028.44 1027.90
1017.19 1017.55 1018.25 1018.47 1018.89 1019.43 1019.84 1019.64 1020.13 1020.45 1021.16 1021.70 1022.28 1022.93 1022.88 1023.12 1024.16 1024.83 1025.21 1025.57 1025.73 1026.16 1026.61 1027.00 1027.39 1027.61 1028.30 1028.33 1028.11 1028.08 1028.07 1028.63 1029.12 1029.20 1029.04 1029.20 1029.15 1029.20 1029.14 1028.90 1028.82 1028.75 1027.97
1018.60 1018.82 1019.05 1019.74 1020.21 1020.84 1021.09 1021.37 1021.50 1022.03 1022.75 1023.38 1023.86 1024.32 1024.36 1025.17 1025.68 1026.57 1027.01 1027.18 1027.37 1027.34 1027.59 1027.94 1028.50 1028.63 1028.99 1028.70 1028.76 1028.86 1028.64 1028.82 1029.09 1029.62 1029.71 1029.73 1029.64 1029.42 1029.38 1029.16 1028.85 1028.57 1028.13
1019.98 1020.26 1020.58 1020.80 1021.53 1021.99 1022.24 1022.87 1023.10 1023.61 1024.18 1024.65 1025.04 1025.52 1026.00 1026.75 1027.31 1028.05 1028.46 1028.56 1028.32 1028.50 1028.58 1028.79 1029.04 1029.13 1029.04 1028.89 1028.64 1028.79 1028.99 1029.29 1029.49 1029.83 1030.32 1030.04 1029.59 1029.82 1029.70 1028.94 1028.57 1028.41 1028.22
1021.40 1021.70 1022.12 1022.50 1022.72 1023.44 1023.86 1024.32 1024.73 1025.08 1025.49 1025.89 1026.40 1026.88 1027.35 1027.90 1028.59 1029.11 1029.28 1029.37 1029.25 1029.43 1029.38 1029.29 1029.12 1029.03 1028.86 1029.28 1029.48 1029.34 1029.27 1029.27 1029.59 1029.75 1029.57 1029.66 1029.87 1029.64 1029.06 1028.78 1028.61 1028.38 1028.03
1023.06 1023.26 1023.59 1023.96 1024.30 1024.59 1025.12 1025.63 1026.11 1026.59 1027.02 1027.25 1027.43 1027.86 1028.36 1028.89 1029.56 1029.99 1030.08 1030.10 1030.10 1030.05 1029.96 1030.04 1030.14 1029.77 1029.68 1029.63 1029.56 1029.34 1029.51 1029.55 1029.25 1029.18 1029.31 1029.30 1029.19 1029.04 1028.84 1028.77 1028.34 1027.97 1027.66
1024.42 1024.63 1025.00 1025.34 1025.81 1026.19 1026.58 1027.01 1027.46 1027.79 1028.12 1028.42 1028.68 1029.02 1029.28 1029.91 1030.49 1030.87 1030.98 1031.14 1031.06 1031.10 1030.60 1030.27 1030.14 1029.83 1029.84 1029.71 1029.37 1029.31 1029.42 1029.13 1029.24 1029.21 1028.90 1028.55 1028.73 1028.84 1028.62 1028.35 1027.99 1027.73 1027.21
Thickness
5638 5630 5622 5614 5607 5600 5597 5592 5590 5586 5583 5578 5575 5570 5567 5564 5563 5563 5561 5560 5561 5561 5561 5562 5563 5564 5564 5563 5564 5564 5561 5557 5554 5569 5566 5568 5564 5563 5563 5560 5556 5551 5548
5639 5632 5623 5616 5610 5605 5599 5596 5592 5589 5586 5584 5579 5576 5573 5571 5569 5567 5565 5566 5566 5564 5564 5561 5563 5562 5562 5564 5564 5564 5561 5563 5557 5558 5562 5560 5558 5556 5554 5553 5548 5544 5540
5640 5631 5624 5618 5612 5608 5604 5599 5595 5591 5587 5584 5581 5578 5577 5576 5572 5570 5570 5570 5570 5569 5568 5566 5566 5561 5561 5563 5563 5562 5561 5560 5558 5555 5557 5551 5546 5544 5544 5540 5536 5531 5526
5639 5631 5626 5621 5616 5610 5605 5601 5597 5592 5589 5586 5583 5580 5579 5578 5578 5576 5574 5573 5572 5572 5570 5568 5567 5565 5565 5565 5561 5560 5559 5556 5555 5553 5551 5538 5535 5532 5531 5526 5522 5514 5515
5637 5637 5628 5622 5618 5614 5609 5604 5599 5594 5590 5587 5584 5582 5581 5580 5578 5576 5575 5574 5572 5570 5567 5566 5565 5561 5557 5556 5557 5559 5554 5553 5552 5544 5534 5527 5523 5519 5516 5511 5505 5501 5497
5638 5637 5633 5625 5621 5618 5612 5608 5603 5598 5594 5589 5586 5583 5582 5582 5578 5574 5572 5570 5568 5567 5565 5556 5550 5547 5544 5543 5543 5542 5542 5543 5539 5532 5524 5521 5508 5497 5502 5494 5488 5486 5481
5628 5631 5630 5627 5624 5620 5613 5609 5606 5602 5596 5592 5588 5585 5584 5582 5577 5574 5570 5568 5566 5564 5557 5547 5540 5536 5534 5531 5528 5527 5524 5524 5525 5521 5508 5499 5490 5491 5480 5473 5468 5465 5458
5625 5625 5623 5624 5617 5615 5614 5614 5610 5604 5600 5596 5591 5588 5585 5585 5579 5574 5568 5562 5555 5551 5548 5544 5537 5529 5524 5521 5519 5514 5507 5505 5504 5501 5489 5488 5475 5466 5462 5461 5454 5447 5440
5620 5620 5617 5616 5616 5614 5612 5610 5608 5606 5603 5600 5596 5590 5586 5574 5572 5569 5561 5549 5541 5535 5532 5529 5524 5517 5512 5510 5511 5498 5494 5481 5473 5481 5469 5454 5457 5447 5446 5442 5429 5425 5418
5591 5599 5609 5614 5611 5612 5611 5607 5603 5601 5600 5589 5581 5576 5571 5565 5562 5561 5556 5542 5530 5524 5516 5511 5508 5504 5494 5491 5490 5479 5477 5456 5455 5448 5439 5436 5432 5427 5421 5412 5405 5398 5389
5572 5579 5587 5597 5603 5605 5602 5593 5585 5580 5574 5568 5561 5554 5549 5544 5541 5539 5538 5538 5527 5512 5499 5492 5487 5486 5483 5473 5466 5460 5457 5440 5431 5428 5412 5410 5407 5402 5396 5387 5381 5373 5363
5549 5555 5561 5569 5577 5577 5579 5571 5565 5563 5555 5546 5543 5535 5530 5525 5522 5520 5519 5513 5503 5496 5479 5469 5460 5460 5455 5451 5445 5426 5430 5419 5403 5397 5387 5379 5371 5372 5366 5360 5354 5347 5338
5532 5533 5539 5543 5547 5549 5549 5547 5544 5543 5537 5529 5525 5521 5512 5504 5500 5501 5491 5490 5484 5478 5467 5452 5441 5432 5428 5425 5414 5406 5407 5387 5379 5374 5363 5353 5347 5347 5339 5337 5331 5322 5313
5514 5513 5513 5518 5520 5523 5520 5517 5515 5512 5514 5515 5506 5498 5495 5485 5477 5471 5473 5459 5456 5449 5440 5434 5424 5413 5421 5397 5388 5381 5377 5361 5360 5347 5339 5338 5334 5324 5318 5313 5306 5301 5291
5493 5488 5490 5496 5497 5497 5494 5490 5488 5482 5477 5483 5477 5479 5481 5469 5460 5445 5440 5445 5445 5423 5417 5406 5406 5391 5390 5377 5360 5355 5345 5339 5333 5328 5323 5317 5311 5301 5294 5287 5281 5270 5261
5472 5467 5461 5464 5469 5475 5479 5468 5464 5456 5463 5435 5455 5448 5443 5448 5438 5430 5422 5411 5411 5398 5388 5382 5377 5369 5354 5344 5344 5333 5324 5321 5313 5304 5297 5294 5285 5275 5270 5265 5254 5242 5235
5454 5451 5445 5438 5439 5444 5443 5445 5451 5437 5430 5420 5413 5424 5408 5407 5406 5404 5397 5383 5378 5370 5364 5355 5347 5339 5326 5320 5315 5308 5302 5296 5289 5287 5277 5270 5263 5254 5244 5237 5228 5218 5209
5433 5430 5423 5423 5407 5414 5417 5415 5409 5407 5402 5397 5390 5387 5379 5370 5373 5374 5364 5358 5354 5345 5339 5330 5326 5319 5307 5300 5292 5284 5277 5278 5275 5265 5252 5242 5234 5227 5218 5211 5204 5189 5181
5417 5413 5402 5399 5392 5386 5393 5391 5384 5377 5377 5368 5359 5359 5355 5351 5350 5342 5339 5335 5329 5321 5312 5307 5299 5292 5285 5278 5273 5264 5259 5252 5245 5235 5224 5217 5207 5201 5192 5187 5174 5165 5154
5395 5390 5381 5375 5377 5362 5368 5369 5363 5357 5355 5345 5339 5334 5334 5331 5320 5313 5311 5308 5303 5296 5287 5281 5277 5266 5259 5254 5249 5247 5240 5230 5221 5210 5201 5191 5182 5176 5166 5157 5146 5131 5124
5370 5366 5359 5357 5352 5347 5342 5344 5340 5338 5330 5325 5318 5311 5311 5307 5297 5290 5285 5279 5275 5269 5263 5257 5251 5245 5235 5230 5228 5223 5217 5205 5196 5188 5182 5171 5159 5152 5144 5132 5119 5109 5104
5344 5342 5340 5334 5329 5323 5320 5318 5316 5311 5304 5298 5294 5289 5288 5279 5274 5266 5260 5256 5251 5249 5243 5236 5228 5222 5215 5213 5207 5199 5191 5182 5175 5164 5157 5150 5141 5131 5117 5106 5099 5091 5085
5319 5317 5314 5312 5306 5302 5299 5293 5291 5286 5280 5276 5272 5267 5262 5255 5249 5242 5237 5233 5231 5226 5221 5214 5208 5201 5197 5194 5189 5180 5171 5159 5154 5147 5134 5125 5120 5106 5094 5092 5086 5075 5066
5295 5292 5289 5285 5284 5278 5274 5270 5266 5262 5257 5252 5247 5242 5238 5233 5225 5218 5216 5212 5208 5202 5197 5192 5187 5183 5178 5170 5163 5155 5147 5141 5129 5119 5117 5110 5099 5092 5086 5080 5070 5061 5055
5269 5267 5264 5261 5258 5255 5251 5247 5242 5237 5232 5229 5227 5222 5217 5212 5204 5197 5195 5190 5183 5178 5173 5167 5160 5158 5154 5149 5141 5135 5125 5116 5112 5106 5098 5091 5088 5082 5073 5064 5058 5053 5046
5247 5244 5240 5237 5233 5229 5225 5222 5217 5213 5209 5206 5201 5196 5193 5186 5181 5177 5169 5161 5157 5152 5150 5148 5143 5139 5132 5125 5121 5114 5106 5101 5094 5087 5085 5083 5077 5069 5061 5054 5049 5043 5040